This is the latest recevied weather packets stored in our database for station/object KC8YYF. If no packets are shown the sender has not sent any weather packets the latest 10 day(s).
| Time | Temp. | Humidity | Pressure | Rain* | Wind** | Luminosity | Snow |
|---|---|---|---|---|---|---|---|
| 1777675899 | 6.11° C | 89% | 1015.3 hPa | 0 mm | - | 17 W/m² | - |
| 1777675596 | 5.56° C | 88% | 1015.4 hPa | 0 mm | - | 16 W/m² | - |
| 1777675293 | 5.56° C | 89% | 1015.4 hPa | 0 mm | - | 7 W/m² | - |
| 1777674989 | 5.56° C | 88% | 1015.4 hPa | 0 mm | - | 7 W/m² | - |
| 1777674686 | 6.11° C | 90% | 1015.3 hPa | 0 mm | - | 6 W/m² | - |
| 1777674382 | 6.11° C | 90% | 1015.3 hPa | 0 mm | - | 9 W/m² | - |
| 1777674079 | 6.11° C | 91% | 1015.2 hPa | 0 mm | - | 6 W/m² | - |
| 1777673776 | 6.11° C | 90% | 1015.1 hPa | 0 mm | - | 10 W/m² | - |
| 1777673473 | 6.11° C | 89% | 1015 hPa | 0 mm | - | 1 W/m² | - |
| 1777673171 | 6.11° C | 90% | 1014.6 hPa | 0 mm | - | 11 W/m² | - |
| 1777672868 | 6.11° C | 90% | 1014.6 hPa | 0 mm | - | 45 W/m² | - |
| 1777672564 | 6.11° C | 92% | 1014.3 hPa | 0 mm | - | 42 W/m² | - |
| 1777672260 | 6.11° C | 92% | 1014.6 hPa | 0 mm | - | 16 W/m² | - |
| 1777671955 | 6.11° C | 92% | 1014.2 hPa | 0 mm | - | 15 W/m² | - |
| 1777671650 | 6.11° C | 92% | 1014.3 hPa | 0 mm | - | 5 W/m² | - |
| 1777671348 | 6.11° C | 93% | 1014.3 hPa | 0 mm | - | 24 W/m² | - |
| 1777671044 | 6.11° C | 94% | 1014 hPa | 0 mm | - | 21 W/m² | - |
| 1777670740 | 6.11° C | 94% | 1014 hPa | 0 mm | - | 34 W/m² | - |
| 1777670437 | 6.11° C | 95% | 1013.9 hPa | 0 mm | - | 34 W/m² | - |
| 1777670134 | 6.11° C | 94% | 1013.6 hPa | 0 mm | - | 22 W/m² | - |
| 1777669832 | 6.11° C | 95% | 1013.7 hPa | 0 mm | - | 21 W/m² | - |
| 1777669528 | 5.56° C | 95% | 1013.6 hPa | 0 mm | - | 23 W/m² | - |
| 1777669225 | 6.11° C | 96% | 1013.5 hPa | 0 mm | - | 53 W/m² | - |
| 1777668921 | 6.67° C | 97% | 1013.4 hPa | 0 mm | - | 66 W/m² | - |
| 1777668620 | 6.11° C | 97% | 1013.1 hPa | 0 mm | - | 61 W/m² | - |
* Rain latest hour (hover to see other rain measurements)
** Current wind speed in m/s (hover to see current wind gust speed)